Terug naar catalogus

SL-24 DEB

ActiefPO
NORAD 33318·DEBRIS·🇷🇺 Russia

Gelanceerd Aug 29, 2008 vanaf Baikonur Cosmodrome

Loading…

Volgende Passages (komende 24 uur)

TLE

VersSource: Space-Track

Epoch: Sep 14, 2026, 14:44 UTC

1 33318U 08040G   26257.61452247  .00010109  00000-0  38432-3 0  9997
2 33318  97.9937 204.9548 0012258 138.3244 221.8929 15.26941764983366

Volg SL-24 DEB in realtime met AllMySat

Download on the App Store